Regional Weather Roundup
Issued by NWS Sioux Falls, SD

Home | Current Version | Previous Version | Graphics & Text | Print | Product List | Glossary On
Versions: 1 2 3 4 5 6 7 8 9 10 11 12 13 14 15 16 17 18 19 20 21 22 23 24 25 26 27 28 29 30 31 32 33 34 35 36 37 38 39 40 41 42 43 44 45 46 47 48 49 50
000
ASUS43 KFSD 241610
RWRFSD

WEATHER ROUNDUP FOR SE SOUTH DAKOTA/SW MINNESOTA/NW IOWA
NATIONAL WEATHER SERVICE SIOUX FALLS SD
1000 AM CST MON NOV 24 2014

NOTE: "FAIR" INDICATES FEW OR NO CLOUDS BELOW 12,000 FEET WITH NO
SIGNIFICANT WEATHER AND OR OBSTRUCTIONS TO VISIBILITY.


SDZ038>040-050-052>070-241700-
SOUTHEAST SOUTH DAKOTA

CITY           SKY/WX    TMP DP  RH WIND       PRES   REMARKS
CHAMBERLAIN    PTSUNNY   22  15  73 NW22G29   29.81R WCI   6
HURON          MOSUNNY   18   9  68 NW22G38   29.77R WCI   1
MADISON        FLURRIES  16  14  93 NW26G32   29.65R WCI  -3
MITCHELL       CLOUDY    22  14  71 N22G31    29.77R WCI   6
SIOUX FALLS    FLURRIES  20  13  74 NW26G33   29.66R WCI   2
WINNER         FAIR      24  14  65 NW22G31   29.83R WCI   9
YANKTON        CLOUDY   N/A N/A N/A NW25G32   29.73R
$$

MNZ071-072-080-081-089-090-097-098-241700-
SOUTHWEST MINNESOTA

CITY           SKY/WX    TMP DP  RH WIND       PRES   REMARKS
FAIRMONT       CLOUDY    18  10  73 NW28G36   29.53R WCI  -1
JACKSON        CLOUDY    19  12  73 NW26G36   29.54R WCI   1
LUVERNE        FLURRIES  21  12  68 NW25G33   29.63R WCI   4
MARSHALL       PTSUNNY   16   7  67 NW29G36   29.61R WCI  -4
MONTEVIDEO     LGT SNOW  16  12  86 N31G37    29.62R WCI  -5
PIPESTONE      FLURRIES  18  10  73 N24G36    29.60R WCI   0
REDWOOD FALLS  LGT SNOW  16  10  77 NW24G33   29.58R WCI  -2
TRACY          FLURRIES  18  12  77 NW32G40   29.60R WCI  -3
WINDOM         LGT SNOW  16  12  86 NW21G31   29.55R WCI  -2
WORTHINGTON    CLOUDY    18  10  73 NW25G31   29.58R WCI  -1
$$

IAZ001>003-012>014-020>022-031-032-NEZ013-014-SDZ071-241700-
NORTHWEST IOWA

CITY           SKY/WX    TMP DP  RH WIND       PRES   REMARKS
CHEROKEE       FLURRIES  22  15  76 NW21G29   29.63R WCI   6
DENISON        CLOUDY    25  16  68 NW23G35   29.62R WCI  10
ESTHERVILLE    CLOUDY    19  12  74 NW28G40   29.55R WCI   1
LE MARS        FLURRIES  21  16  79 NW23G37   29.68R WCI   5
ORANGE CITY    FLURRIES  21  14  73 NW26G36   29.63R WCI   4
SHELDON        FLURRIES  19  14  79 NW22G32   29.61R WCI   3
SIOUX CITY     FLURRIES  25  17  72 NW28G37   29.68R WCI   9
SPENCER        CLOUDY    21  12  68 NW29G39   29.58R WCI   3
STORM LAKE     CLOUDY    21  14  73 NW29G39   29.60R WCI   3
$$

ABBREVIATIONS USED IN REMARKS
   TC - TEMPERATURE IN CELSIUS
  WCI - WIND CHILL INDEX
   HX - HEAT INDEX
  VSB - VISIBILITY




USA.gov is the U.S. government's official web portal to all federal, state and local government web resources and services.